Home > Time Zones > World Clock > Weather > France > Pau > Past weeks

Flag for France Weather past 2 weeks in Pau, France

Now
36 °F

Mostly cloudy.


Feels Like: 29 °F
Forecast: 20 / 34 °F
Wind: 8 mph from North

Location: Pau Airport

Current Time: Dec 28, 2014 at 10:32:37 PM

Latest Report: Dec 28, 2014 at 10:00 PM


Visibility: N/A

Pressure: 30.33 "Hg

Humidity: 75%

Dew point: 28 °F

Location of PauLocation

Historic Weather in Pau — Graph

°F

Pau temperature yesterday

Maximum temperature yesterday: 52 °F (at 8:00 AM)
Minimum temperature yesterday: 45 °F (at 8:30 PM)
Average temperature yesterday: 48 °F

Past Weeks' High & Low Weather Summary

 TemperatureHumidityPressure
High57 °F (Dec 22, 2:30 PM)100% (Dec 13, 11:00 PM)30.60 "Hg (Dec 13, 11:00 PM)
Low30 °F (Dec 22, 6:00 AM)48% (Dec 26, 1:30 PM)29.86 "Hg (Dec 28, 2:00 AM)
Average46 °F87%30.31 "Hg
* Reported Dec 13 9:00 PM — Dec 28 9:00 PM, Pau, Weather by CustomWeather, © 2014

Note: Actual official high and low records may vary slightly from our data, if they occured in-between our weather recording intervals... More about our weather records

Advertising

Pau weather history for previous 24 hours

 ConditionsComfort  
Time TempWeatherWind HumidityBarometerVisibility
9:00 PM
Dec 28
36 °FMostly cloudy.6 mph75%30.33 "HgN/A
8:30 PM36 °FMostly cloudy.5 mph75%30.30 "HgN/A
8:00 PM37 °FMostly cloudy.9 mph70%30.30 "HgN/A
7:30 PM37 °FOvercast.9 mph70%30.30 "HgN/A
7:00 PM37 °FOvercast.13 mph70%30.27 "HgN/A
6:30 PM39 °FMostly cloudy.10 mph65%30.24 "HgN/A
6:00 PM39 °FOvercast.10 mph61%30.24 "HgN/A
5:30 PM41 °FMostly cloudy.9 mph61%30.21 "HgN/A
5:00 PM41 °FPartly sunny.10 mph61%30.18 "HgN/A
4:30 PM43 °FScattered clouds.6 mph53%30.18 "HgN/A
4:00 PM43 °FScattered clouds.10 mph49%30.18 "HgN/A
3:30 PM43 °FPassing clouds.7 mph57%30.15 "HgN/A
3:00 PM43 °FScattered clouds.10 mph57%30.12 "HgN/A
2:30 PM43 °FPassing clouds.12 mph57%30.12 "HgN/A
2:00 PM43 °FPartly sunny.6 mph66%30.12 "HgN/A
1:30 PM43 °FPartly sunny.8 mph71%30.12 "HgN/A
1:00 PM43 °FBroken clouds.7 mph71%30.12 "HgN/A
12:30 PM41 °FScattered clouds.8 mph81%30.09 "HgN/A
12:00 PM41 °FBroken clouds.7 mph76%30.09 "HgN/A
11:30 AM41 °FPartly sunny.9 mph81%30.09 "HgN/A
11:00 AM41 °FPartly sunny.7 mph81%30.09 "HgN/A
10:30 AM41 °FPartly sunny.5 mph81%30.07 "HgN/A
10:00 AM41 °FBroken clouds.3 mph87%30.07 "HgN/A
9:30 AM39 °FScattered clouds.3 mph87%30.04 "HgN/A
9:00 AM39 °FBroken clouds.2 mph87%30.04 "HgN/A
8:30 AM39 °FMostly cloudy.3 mph87%30.01 "HgN/A
8:00 AM39 °FMostly cloudy.5 mph87%30.01 "HgN/A
7:30 AM41 °FPartly cloudy.8 mph87%29.98 "HgN/A
7:00 AM41 °FPassing clouds.8 mph87%29.98 "HgN/A
6:30 AM43 °FLight rain. Overcast.12 mph93%29.95 "HgN/A
6:00 AM43 °FPartly cloudy.7 mph93%29.95 "HgN/A
5:30 AM43 °FMostly cloudy.7 mph93%29.92 "HgN/A
4:30 AM43 °FMostly cloudy.5 mph93%29.92 "HgN/A
4:00 AM43 °FLight rain. Passing clouds.7 mph93%29.92 "HgN/A
3:30 AM43 °FPartly cloudy.12 mph93%29.89 "HgN/A
3:00 AM45 °FMostly cloudy.16 mph87%29.89 "HgN/A
2:30 AM45 °FLight rain. Partly cloudy.9 mph93%29.89 "HgN/A
2:00 AM45 °FRain. Passing clouds.12 mph93%29.86 "Hg6 mi
1:30 AM45 °FLight rain. Passing clouds.9 mph93%29.89 "Hg4 mi
1:00 AM45 °FLight rain. Passing clouds.9 mph93%29.89 "HgN/A
12:30 AM45 °FLight rain. Fog.10 mph100%29.89 "Hg3 mi
12:00 AM46 °FLight rain. Passing clouds.15 mph87%29.89 "Hg4 mi
11:30 PM
Dec 27
46 °FOvercast.14 mph93%29.89 "HgN/A
11:00 PM46 °FMostly cloudy.14 mph93%29.89 "HgN/A
10:30 PM46 °FPartly cloudy.16 mph93%29.89 "HgN/A
10:00 PM46 °FLight rain. Partly cloudy.13 mph93%29.92 "HgN/A
Weather by CustomWeather, © 2014

See weather overviewHow to use our weather pages